Tracking 29892 objects as of 21-Nov-2024
HD Live streaming from Space Station
objects crossing your sky now

STARLINK-5830

Track STARLINK-5830 now!
10-day predictions
STARLINK-5830 is classified as:


NORAD ID: 57065
Int'l Code: 2023-088T
Perigee: 565.6 km
Apogee: 566.9 km
Inclination: 43.0 °
Period: 95.8 minutes
Semi major axis: 6937 km
RCS: Unknown
Launch date: June 22, 2023
Source: United States (US)
Launch site: AIR FORCE WESTERN TEST RANGE (AFWTR)
Your satellite tracking list
Your tracking list is empty




NASA's NSSDC Master Catalog

Two Line Element Set (TLE):
1 57065U 23088T   24325.90355302  .00000015  00000-0  16163-4 0  9994
2 57065  43.0016 161.5792 0000948 272.3845  87.6889 15.02535244 78127
Source of the keplerian elements: AFSPC